Regional Weather Roundup
Issued by NWS Charleston, SC

Current Version | Previous Version | Graphics & Text | Print | Product List | Glossary On
Versions: 1 2 3 4 5 6 7 8 9 10 11 12 13 14 15 16 17 18 19 20 21 22 23 24 25 26 27 28 29 30 31 32 33 34 35 36 37 38 39 40 41 42 43 44 45 46 47 48 49 50
000
ASUS42 KCHS 212127
RWRCHS

REGIONAL WEATHER ROUNDUP
NATIONAL WEATHER SERVICE CHARLESTON SC
500 PM EDT SUN MAY 21 2017

NOTE: "FAIR" INDICATES FEW OR NO CLOUDS BELOW 12,000 FEET WITH NO
SIGNIFICANT WEATHER AND/OR OBSTRUCTIONS TO VISIBILITY.

NOT ALL STATIONS ARE QUALITY CONTROLLED. USE DATA WITH CAUTION...
ESPECIALLY DEWPOINT OBSERVATIONS.

SCZ027-030-031-034>040-042>050-212200-
...SOUTHEAST SOUTH CAROLINA...

CITY           SKY/WX    TMP DP  RH WIND       PRES   REMARKS
N CHARLESTON   PTSUNNY   80  70  71 SE18      30.08S
WATERFRONT PRK   N/A     79  74  85 SE14      30.07F
JOHNS ISLAND   FAIR      79  72  78 SE10G17   30.10R
PINOPOLIS      NOT AVBL
MONCKS CORNER  FAIR      81  66  61 SE7       30.08R
SUMMERVILLE    FAIR      81  68  65 SE8       30.09R
BEAUFORT MCAS  CLOUDY    80  74  81 S7        30.09R
BEAUFORT ARPT  MOCLDY    79  72  78 S10       30.09S
HILTON HEAD IS PTSUNNY   79  73  83 S9G16       N/A
WALTERBORO     CLOUDY    77  72  83 S9        30.11R
ALLENDALE      FAIR      77  72  83 SE12G18   30.07R

...SOUTHERN MIDLANDS AND PEE DEE...

CITY           SKY/WX    TMP DP  RH WIND       PRES   REMARKS
GEORGETOWN     FAIR      79  66  65 SE12      30.11R
KINGSTREE      FAIR      82  61  47 SE10      30.07R
ORANGEBURG     LGT RAIN  78  71  79 S8        30.06R
BARNWELL       MOCLDY    84  73  70 SE8       30.06S HX  91
AIKEN          MOCLDY    82  66  57 S9        30.07S
MANNING        FAIR      82  72  69 S10G20    30.06R
COLUMBIA       RAIN      75  71  87 SW7       30.05S FOG
SUMTER         CLOUDY    86  62  44 SE12      30.03R
FLORENCE       CLOUDY    85  65  51 SE12      30.06F
MYRTLE BEACH   MOSUNNY   81  72  74 SE13G23   30.11F
N MYRTLE BEACH MOSUNNY   78  71  79 E16G22    30.11F

$$

GAZ063-065-086>088-099>101-113>116-118-119-134>141-150-212200-
...SOUTHEAST GEORGIA...

CITY           SKY/WX    TMP DP  RH WIND       PRES   REMARKS
SAVANNAH ARPT  HVY RAIN  76  73  91 S5        30.08R FOG
HUNTER AAF     PTSUNNY   77  77 100 S6        30.06R
FORT STEWART   CLOUDY    86  73  66 SE10      30.05S HX  93
STATESBORO     CLOUDY    85  71  64 S8        30.06R HX  90
SYLVANIA       CLOUDY    86  72  64 SW5       30.06S HX  92
CLAXTON        FAIR      83  74  74 S3        30.07R HX  90

...CSRA...CENTRAL AND FAR SOUTHEAST GEORGIA...

CITY           SKY/WX    TMP DP  RH WIND       PRES   REMARKS
THOMSON        CLOUDY    82  67  60 NW7       30.09R
AUGUSTA-BUSH   PTSUNNY   88  68  51 SW10      30.02S HX  91
AUGUSTA-DANIEL PTSUNNY   86  63  45 S8        30.04S
SWAINSBORO     CLOUDY    82  68  61 S5        30.07R
VIDALIA        CLOUDY    86  68  54 SW6       30.06S
EASTMAN        FAIR      87  52  30 W7G17     30.08S
HAZLEHURST     MOCLDY    87  68  54 W3        30.05S HX  90
ALMA           PTSUNNY   85  67  54 W8        30.06F
WAYCROSS       MOSUNNY   89  71  56 NW5       30.06S HX  95
JESUP          FAIR      88  63  42 CALM      30.07S
BAXLEY         FAIR      84  72  65 W5        30.07S
BRUNSWICK      CLOUDY    81  73  78 SE10      30.08F
SAINT SIMONS   CLOUDY    76  71  85 SE10      30.08F

$$

SCZ027-028-034-036>038-045-046-048>050-GAZ119-141-212200-
...LAKE AND SUPPLEMENTAL COASTAL OBSERVATIONS...

STATION/POSITION TIME  TEMP    WIND        PRES    WAVE   SWELL
                       AIR SEA DIR/SP/G            HT/PER HT/PER/DIR
                 (UTC) (F)     (DEG/KT/KT) (MB)    (FT/S) (FT/S/D)
WINYAH BAY       2045   78     120/ 12     1019.0F
LAKE MURRAY      2120   76     150/ 14/ 17 1016.6
ACE BASIN NERRS  2030   80     130/  4     1019.0S
FORT PULASKI     2100   78 80  180/  6/ 10 1019.5
SAPELO ISLAND    2030   71     130/  8     1019.0S

$$

ANZ835-935-AMZ111-154-330-350-352-354-370-450-454-472-212200-
...C-MAN AND BUOY OBSERVATIONS...

STATION/POSITION TIME  TEMP    WIND        PRES    WAVE   SWELL
                       AIR SEA DIR/SP/G            HT/PER HT/PER/DIR
                 (UTC) (F)     (DEG/KT/KT) (MB)    (FT/S) (FT/S/D)
BUOY 41004       2110   78 80  130/ 12/ 14 1018.8
BUOY 41008       2050   78 78  170/ 10/ 12 1018.4F   2/ 6   2/100/ 6
FOLLY BEACH CMAN 2100   78     140/ 14/ 16 1019.8R
CAPERS NEARSHORE 2108   82 78  150/ 14/ 19 1018.8S
FRIPP NEARSHORE  2108   79 79  170/ 12/ 16 1018.5R


STATION/POSITION TIME  TEMP    WIND        PRES    WAVE   SWELL
                       AIR SEA DIR/SP/G            HT/PER HT/PER/DIR
                 (UTC) (F)     (DEG/KT/KT) (MB)    (FT/S) (FT/S/D)
5E ST. MARYS GA  2100      79                N/A     2/ 7
FRYING PAN BUOY  2110   76 78   80/ 14/ 16 1019.5
BUOY 41025       2050   69 78  360/ 14/ 16 1020.5F   4/10   3/ 40/10
CAPE LOOKOUT NC  2100   72      50/ 10/ 11 1020.8F
BUOY 41002       2050   77 81  350/  2/  4 1020.5F   2/ 8   2/160/ 8
BUOY 41010       2110   78 79  120/ 10/ 10 1019.1
ST AUGUSTINE FL  2100   78 81  140/ 12/ 13 1019.0F


$$




USA.gov is the U.S. government's official web portal to all federal, state and local government web resources and services.